Location: Azul
(36.7830°S, 59.8500°W)
Time: 02:53:11
(UTC-03:00)

DELFI C3 - Visible Passes

Search period start: 23 October 2021 00:00
Search period end: 02 November 2021 00:00
Orbit: 528 x 546 km, 97.4° (Epoch: 22 October)

Date Brightness Start Highest point End Pass type
(mag) Time Alt. Az. Time Alt. Az. Time Alt. Az.
23 Oct ? 20:01:08 10° SE 20:03:46 17° E 20:06:23 10° NE visible
23 Oct ? 21:34:50 10° SSW 21:38:17 29° WSW 21:41:41 10° NW visible
24 Oct ? 19:53:29 10° ESE 19:55:29 14° E 19:57:29 10° ENE visible
24 Oct ? 21:26:27 10° S 21:30:07 36° WSW 21:33:43 10° NW visible
25 Oct ? 21:18:07 10° S 21:21:55 46° WSW 21:25:40 10° NNW visible
26 Oct ? 21:09:48 10° S 21:13:43 59° WSW 21:17:32 10° NNW visible
27 Oct ? 21:01:32 10° S 21:05:30 77° WSW 21:09:21 10° NNW visible
28 Oct ? 20:53:17 10° SSE 20:57:15 83° E 21:01:09 10° N visible
29 Oct ? 20:45:04 10° SSE 20:49:01 64° ENE 20:52:52 10° N visible
30 Oct ? 20:36:53 10° SSE 20:40:43 49° E 20:44:30 10° N visible
30 Oct ? 22:13:43 10° SW 22:14:43 11° WSW 22:15:43 10° W visible
31 Oct ? 20:28:44 10° SSE 20:32:27 38° E 20:36:05 10° NNE visible
31 Oct ? 22:04:34 10° SW 22:06:33 14° WSW 22:08:30 10° W visible
01 Nov ? 20:20:38 10° SE 20:24:08 30° E 20:27:35 10° NNE visible
01 Nov ? 21:55:49 10° SSW 21:58:21 17° WSW 22:00:52 10° WNW visible
